Regional Weather Roundup
Issued by NWS

Home | Current Version | Previous Version | Graphics & Text | Print | Product List | Glossary Off
Versions: 1 2 3 4 5 6 7 8 9 10 11 12 13 14 15 16 17 18 19 20 21 22 23 24 25 26 27 28 29 30 31 32 33 34 35 36 37 38 39 40 41 42 43 44 45 46 47 48 49 50

000
ASUS43 KDMX 221601
RWRIA

WEATHER ROUNDUP FOR IOWA
NATIONAL WEATHER SERVICE DES MOINES IA
1000 AM CST WED FEB 22 2017

NOTE: "FAIR" INDICATES FEW OR NO CLOUDS BELOW 12,000 FEET WITH NO
SIGNIFICANT WEATHER AND/OR OBSTRUCTIONS TO VISIBILITY.

* - THESE STATIONS ARE NOT NWS STATIONS...THUS NOT UNDER NWS
QUALITY CONTROL.  THEY ALSO DO NOT REPORT WEATHER SUCH
AS PRECIPITATION OR FOG.

IAZ001>003-012>014-020>022-031>034-043>046-221700-
   NORTHWEST IOWA

CITY           SKY/WX    TMP DP  RH WIND       PRES   REMARKS
CARROLL *      SUNNY     57  41  54 SW21      29.62S
CHEROKEE *     SUNNY     51  37  60 SW3       29.62F
DENISON *      SUNNY     54  37  54 W9G16     29.62R
LE MARS *      SUNNY     55  39  54 NW12      29.64F
ORANGE CITY *  SUNNY     54  43  66 NW9       29.62F
SHELDON *      SUNNY     54  45  71 W8        29.61F
SIOUX CITY     SUNNY     55  37  50 NW12      29.65S
SPENCER        SUNNY     47  38  71 W6        29.61F
STORM LAKE *   SUNNY     52  39  62 W17       29.62S
$$

IAZ055>058-069>071-079>083-090>094-221700-
   SOUTHWEST IOWA

CITY           SKY/WX    TMP DP  RH WIND       PRES   REMARKS
ATLANTIC *     SUNNY     57  37  47 SW16      29.63F
CLARINDA *     SUNNY     59  39  47 S13G18      N/A
COUNCIL BLFS * SUNNY     57  37  47 SW16      29.65R
CRESTON *      SUNNY     59  36  41 SW16      29.67F
HARLAN  *      SUNNY     55  43  62 SW15      29.68R
LAMONI         SUNNY     61  38  42 SW16      29.70F
RED OAK *      SUNNY     57  39  51 S12G18    29.65F
SHENANDOAH *   SUNNY     59  37  44 SW15      29.67S
$$

IAZ047>049-059>061-072>074-084-221700-
   CENTRAL IOWA

CITY           SKY/WX    TMP DP  RH WIND       PRES   REMARKS
AMES           SUNNY     59  42  53 S7        29.62F
ANKENY *       SUNNY     63  34  34 SW12G18   29.64F
BOONE *        SUNNY     57  39  51 SW13      29.61F
CHARITON *     SUNNY     63  39  42 SW17G24   29.67F
DES MOINES     MOSUNNY   64  33  31 SW16      29.64F
GRINNELL*      SUNNY     59  39  48 S16       29.67F
KNOXVILLE *    SUNNY     63  34  34 S16G24    29.65F
MARSHALLTOWN   SUNNY     58  38  47 SW17      29.63F
NEWTON *       SUNNY     61  37  41 SW17      29.65F
PELLA *        SUNNY     62  38  41 S9        29.68F
PERRY *          N/A     58  38  47 SW13      29.62F
$$

IAZ004>006-015-016-023>025-035-036-221700-
   NORTH CENTRAL IOWA

CITY           SKY/WX    TMP DP  RH WIND       PRES   REMARKS
ALGONA *       CLOUDY    46  39  76 SW9       29.61S
CLARION *      CLOUDY    48  43  81 SW8       29.62S
ESTHERVILLE    MOSUNNY   51  41  68 W12       29.59F
FORT DODGE *   MOSUNNY   52  41  66 W8        29.64R
MASON CITY     CLOUDY    50  39  66 SW12      29.60F
FOREST CITY *    N/A     48  37  66 SW7       29.60S
WEBSTER CITY * MOSUNNY   55  41  58 SW12      29.60S
IOWA FALLS *     N/A     57  41  54 SW12      29.62F
$$

IAZ007>011-017>019-026>030-037>042-050>054-066-221700-
   NORTHEAST IOWA

CITY           SKY/WX    TMP DP  RH WIND       PRES   REMARKS
CEDAR RAPIDS   SUNNY     59  49  69 S16       29.67F
CHARLES CITY * CLOUDY    46  41  81 S9        29.62S
CLINTON *      SUNNY     57  53  86 S17       29.73F
DECORAH *      MOSUNNY   52  37  58 SW10G16   29.61F
DUBUQUE        SUNNY     57  49  74 SW17      29.68F
MONTICELLO *   SUNNY     59  50  72 S15G22    29.68F
OELWEIN *      SUNNY     54  43  66 S13       29.65S
WATERLOO       SUNNY     58  36  43 SW15      29.63F
$$

IAZ064-065-067-068-078-221700-
   EAST CENTRAL IOWA

CITY           SKY/WX    TMP DP  RH WIND       PRES   REMARKS
DAVENPORT      SUNNY     58  53  84 S16       29.73F
IOWA CITY      SUNNY     61  50  67 SW17      29.72F
MUSCATINE *    SUNNY     59  54  82 S13       29.74F
QUAD CITIES    MOSUNNY   59  55  87 S13       29.74F
$$

IAZ062-063-075>077-085>089-095>099-221700-
   SOUTHEAST IOWA

CITY           SKY/WX    TMP DP  RH WIND       PRES   REMARKS
BURLINGTON     CLOUDY    56  56 100 SW9       29.77F FOG
FAIRFIELD *    SUNNY     64  48  55 SW18G26   29.72F
KEOKUK *       CLOUDY    55  55 100 S9        29.77F FOG
OTTUMWA        SUNNY     63  47  55 S17       29.70F
WASHINGTON *   SUNNY     63  54  72 SW18G25   29.72F
$$

ABBREVIATIONS USED IN REMARKS
   TC - TEMPERATURES IN CELSIUS
  WCI - WIND CHILL INDEX
   HX - HEAT INDEX
  VSB - VISIBILITY
$$




USA.gov is the U.S. government's official web portal to all federal, state and local government web resources and services.